SID,Date,Time,pH,Free Cl,Total Cl,Iron,Mn,Color,Turbidity,Analyst
48367,01/01/2011,"830       ",7.78,0.99,1.09,0.01,0.014,0,0.06,"DF                                                "
48368,01/02/2011,"845       ",7.85,1.07,1.10,0.03,0.017,2,0.15,"TL                                                "
48369,01/03/2011,"845       ",7.96,1.03,1.21,0.01,0.009,0,0.04,"TCF                                               "
48370,01/04/2011,"1045      ",8.06,1.04,1.16,0.02,0.007,0,0.04,"JF                                                "
48371,01/05/2011,"820       ",7.97,1.27,1.30,0.00,0.019,0,0.04,"TCF                                               "
48372,01/06/2011,"959       ",7.96,1.22,1.29,0.02,0.015,0,0.09,"TL                                                "
48373,01/07/2011,"812       ",7.91,1.19,1.25,0.00,0.004,0,0.04,"TL                                                "
48374,01/08/2011,"850       ",8.12,1.15,1.29,0.01,0.007,0,0.07,"TL                                                "
48375,01/09/2011,"907       ",7.65,1.17,1.20,0.00,0.012,0,0.07,"TL                                                "
48376,01/10/2011,"945       ",7.82,1.19,1.32,0.00,0.003,0,0.06,"TCF                                               "
48377,01/11/2011,"915       ",7.96,1.19,1.29,0.01,0.004,0,0.07,"JF                                                "
48378,01/12/2011,"910       ",7.92,1.22,1.31,0.01,0.003,0,0.06,"TCF                                               "
48379,01/13/2011,"854       ",7.80,1.20,1.22,0.02,0.002,0,0.05,"tl                                                "
48380,01/14/2011,"817       ",7.70,1.21,1.27,0.01,0.014,0,0.05,"TL                                                "
48381,01/15/2011,"836       ",7.73,1.10,1.19,0.00,0.007,0,0.05,"TL                                                "
48382,01/16/2011,"845       ",7.75,1.27,1.35,0.01,0.010,0,0.09,"tl                                                "
48383,01/17/2011,"950       ",7.80,1.00,1.07,0.02,0.015,0,0.06,"TL                                                "
48384,01/18/2011,"835       ",7.83,1.27,1.37,0.00,0.002,0,0.04,"TCF                                               "
48385,01/19/2011,"1100      ",7.77,0.97,1.21,0.00,0.009,0,0.05,"DF                                                "
48386,01/20/2011,"920       ",7.72,0.91,1.01,0.01,0.012,0,0.05,"JF                                                "
48387,01/21/2011,"1007      ",7.62,1.21,1.27,0.02,0.005,0,0.05,"TL                                                "
48388,01/22/2011,"745       ",7.56,1.35,1.42,0.01,0.007,0,0.06,"wm                                                "
48389,01/23/2011,"900       ",8.00,1.00,1.09,0.01,0.010,0,0.07,"TL                                                "
48390,01/24/2011,"930       ",7.85,0.84,0.93,0.01,0.006,0,0.06,"TCF                                               "
48391,01/25/2011,"1100      ",7.81,0.94,1.11,0.01,0.009,0,0.07,"DF                                                "
48392,01/26/2011,"1015      ",7.60,0.82,0.89,0.02,0.017,0,0.06,"TL                                                "
48393,01/27/2011,"900       ",7.90,1.29,1.35,0.00,0.017,0,0.06,"TL                                                "
48394,01/28/2011,"754       ",7.75,1.27,1.37,0.02,0.021,0,0.06,"TL                                                "
48395,01/29/2011,"1105      ",7.90,1.23,1.31,0.01,0.019,0,0.05,"TL                                                "
48396,01/30/2011,"813       ",8.01,1.12,1.23,0.02,0.032,0,0.05,"tl                                                "
48397,01/31/2011,"855       ",7.75,1.19,1.31,0.02,0.019,0,0.05,"WM                                                "
48398,02/01/2011,"1145      ",7.76,1.04,1.10,0.01,0.019,0,0.10,"JF                                                "
48399,02/02/2011,"1230      ",7.71,1.32,1.41,0.02,0.002,0,0.07,"TL                                                "
48400,02/03/2011,"813       ",8.10,1.22,1.25,0.02,0.000,0,0.05,"TL                                                "
48401,02/04/2011,"900       ",8.14,1.19,1.21,0.02,0.007,0,0.06,"TL                                                "
48402,02/05/2011,"825       ",8.00,1.09,1.15,0.01,0.012,0,0.06,"TL                                                "
48403,02/06/2011,"955       ",7.63,1.17,1.20,0.02,0.015,0,0.08,"TL                                                "
48404,02/07/2011,"905       ",8.11,1.23,1.42,0.03,0.040,1,0.13,"TCF                                               "
48405,02/08/2011,"945       ",7.98,1.21,1.32,0.02,0.021,0,0.06,"JF                                                "
48406,02/09/2011,"1130      ",8.04,1.11,1.20,0.01,0.024,0,0.05,"JF                                                "
48407,02/10/2011,"750       ",8.12,1.08,1.23,0.01,0.015,0,0.05,"JF                                                "
48408,02/11/2011,"825       ",8.10,1.27,1.33,0.02,0.014,0,0.09,"TL                                                "
48409,02/12/2011,"1015      ",7.90,1.23,1.30,0.01,0.007,0,0.05,"TL                                                "
48410,02/13/2011,"850       ",7.73,1.12,1.17,0.01,0.010,0,0.05,"TL                                                "
48411,02/14/2011,"915       ",7.87,0.94,1.13,0.01,0.005,0,0.09,"TCF                                               "
48412,02/15/2011,"900       ",7.76,1.21,1.33,0.01,0.006,0,0.06,"JF                                                "
48413,02/16/2011,"910       ",7.98,1.10,1.17,0.01,0.015,0,0.05,"JF                                                "
48414,02/17/2011,"920       ",7.86,1.02,1.15,0.01,0.016,0,0.05,"JF                                                "
48415,02/18/2011,"925       ",7.81,1.23,1.31,0.03,0.005,0,0.06,"TL                                                "
48416,02/19/2011,"850       ",7.72,1.23,1.30,0.00,0.009,0,0.05,"TL                                                "
48417,02/20/2011,"1055      ",7.60,1.25,1.27,0.01,0.014,0,0.07,"TL                                                "
48418,02/21/2011,"835       ",7.95,1.14,1.26,0.00,0.009,0,0.06,"WM                                                "
48419,02/22/2011,"1135      ",7.86,1.15,1.28,0.01,0.002,0,0.06,"WM                                                "
48420,02/23/2011,"1140      ",8.05,1.07,1.18,0.01,0.012,0,0.06,"JF                                                "
48421,02/24/2011,"815       ",7.75,1.24,1.31,0.02,0.013,0,0.05,"TL                                                "
48422,02/25/2011,"1615      ",7.66,0.95,1.02,0.03,0.021,2,0.15,"tl                                                "
48423,02/26/2011,"1210      ",7.80,1.10,1.19,0.04,0.024,0,0.08,"tl                                                "
48424,02/27/2011,"1030      ",7.71,1.15,1.22,0.02,0.019,0,0.05,"TL                                                "
48425,02/28/2011,"1125      ",7.93,1.18,1.34,0.01,0.006,0,0.06,"TCF                                               "
48426,03/01/2011,"940       ",7.60,1.06,1.13,0.01,0.007,0,0.04,"DF                                                "
48427,03/02/2011,"1115      ",7.84,1.22,1.30,0.01,0.019,0,0.05,"TCF                                               "
48428,03/03/2011,"1130      ",7.87,1.24,1.32,0.02,0.020,0,0.08,"JF                                                "
48429,03/04/2011,"840       ",8.16,1.29,1.47,0.02,0.020,0,0.06,"TCF                                               "
48430,03/05/2011,"14.02     ",7.52,1.03,1.12,0.01,0.017,0,0.07,"TL                                                "
48431,03/06/2011,"910       ",7.69,1.15,1.25,0.02,0.021,0,0.05,"TL                                                "
48432,03/07/2011,"855       ",7.62,1.04,1.15,0.01,0.017,0,0.05,"WM                                                "
48433,03/08/2011,"1010      ",7.64,1.06,1.15,0.01,0.019,0,0.05,"JF                                                "
48434,03/09/2011,"920       ",7.86,1.02,1.20,0.01,0.008,0,0.05,"JF                                                "
48435,03/10/2011,"1036      ",7.61,1.15,1.24,0.02,0.022,0,0.06,"TL                                                "
48436,03/11/2011,"935       ",7.83,1.03,1.21,0.01,0.017,0,0.07,"JF                                                "
48437,03/12/2011,"1103      ",7.66,1.02,1.13,0.01,0.012,0,0.06,"sbk                                               "
48438,03/13/2011,"830       ",7.92,1.25,1.33,0.02,0.022,0,0.06,"tl                                                "
48439,03/14/2011,"1045      ",7.51,1.01,1.13,0.02,0.029,0,0.05,"TCF                                               "
48440,03/15/2011,"1000      ",7.80,0.92,1.04,0.02,0.027,0,0.06,"JF                                                "
48441,03/16/2011,"1140      ",8.02,1.12,1.21,0.01,0.002,0,0.07,"TL                                                "
48442,03/17/2011,"942       ",7.80,1.19,1.25,0.02,0.012,0,0.07,"TL                                                "
48443,03/18/2011,"910       ",7.91,1.08,1.21,0.02,0.008,0,0.08,"JF                                                "
48444,03/19/2011,"942       ",7.56,1.01,1.09,0.01,0.022,0,0.06,"TL                                                "
48445,03/20/2011,"945       ",7.75,0.99,1.09,0.02,0.020,0,0.06,"WM                                                "
48446,03/21/2011,"1025      ",7.84,1.14,1.35,0.02,0.025,0,0.05,"TCF                                               "
48447,03/22/2011,"955       ",7.77,0.98,1.11,0.02,0.024,0,0.07,"JF                                                "
48448,03/23/2011,"930       ",7.62,1.12,1.19,0.00,0.014,0,0.05,"TL                                                "
48449,03/24/2011,"930       ",7.82,1.20,1.29,0.01,0.015,0,0.07,"TL                                                "
48450,03/25/2011,"815       ",8.29,1.11,1.18,0.01,0.008,0,0.07,"TCF                                               "
48451,03/26/2011,"1130      ",7.72,1.01,1.12,0.00,0.010,0,0.08,"TL                                                "
48452,03/27/2011,"916       ",7.60,1.02,1.10,0.02,0.009,0,0.07,"WM                                                "
48453,03/28/2011,"1155      ",8.09,0.91,1.31,0.00,0.005,0,0.08,"TCF                                               "
48454,03/29/2011,"930       ",7.89,1.09,1.27,0.01,0.008,0,0.07,"JF                                                "
48455,03/30/2011,"830       ",7.97,0.96,1.08,0.01,0.005,0,0.07,"JF                                                "
48456,03/31/2011,"915       ",7.50,1.03,1.16,0.07,0.024,0,0.07,"DF                                                "
48457,04/01/2011,"840       ",7.70,1.20,1.29,0.02,0.019,0,0.07,"TL                                                "
48458,04/02/2011,"956       ",7.60,1.30,1.36,0.01,0.011,0,0.07,"TL                                                "
48459,04/03/2011,"800       ",7.72,0.90,1.08,0.03,0.017,0,0.05,"WM                                                "
48460,04/04/2011,"855       ",8.19,0.93,1.06,0.04,0.004,0,0.04,"TCF                                               "
48461,04/05/2011,"950       ",7.67,0.72,0.86,0.03,0.037,0,0.05,"TCF                                               "
48462,04/06/2011,"905       ",7.82,0.93,1.01,0.03,0.021,0,0.07,"JF                                                "
48463,04/07/2011,"750       ",7.85,0.84,0.98,0.01,0.018,0,0.05,"WM                                                "
48464,04/08/2011,"955       ",7.96,1.05,1.14,0.03,0.016,0,0.06,"TL                                                "
48465,04/09/2011,"1130      ",7.68,0.90,0.97,0.03,0.020,0,0.07,"TL                                                "
48466,04/10/2011,"1154      ",7.96,0.99,1.10,0.03,0.017,0,0.06,"9.9                                               "
48467,04/11/2011,"1100      ",7.81,1.21,1.32,0.02,0.015,0,0.09,"DF                                                "
48468,04/12/2011,"745       ",8.07,1.04,1.13,0.03,0.024,0,0.05,"JF                                                "
48469,04/13/2011,"710       ",8.12,1.05,1.14,0.01,0.013,0,0.07,"JF                                                "
48470,04/14/2011,"807       ",7.91,0.96,1.03,0.02,0.005,0,0.06,"TL                                                "
48471,04/15/2011,"930       ",8.02,0.92,1.04,0.02,0.011,0,0.06,"JF                                                "
48472,04/16/2011,"1140      ",7.75,1.09,1.12,0.02,0.015,3,0.17,"TL                                                "
48473,04/17/2011,"1105      ",7.84,1.02,1.13,0.02,0.014,0,0.09,"WM                                                "
48474,04/18/2011,"1030      ",7.88,1.07,1.18,0.02,0.016,0,0.06,"TCF                                               "
48475,04/19/2011,"1050      ",7.71,1.24,1.43,0.01,0.003,0,0.06,"TCF                                               "
48476,04/20/2011,"1315      ",7.85,1.03,1.19,0.01,0.002,0,0.07,"WM                                                "
48477,04/21/2011,"900       ",7.87,1.12,1.19,0.02,0.010,0,0.08,"TL                                                "
48478,04/22/2011,"1015      ",7.82,1.07,1.09,0.02,0.022,1,0.09,"TL                                                "
48479,04/23/2011,"830       ",7.95,1.02,1.11,0.01,0.015,0,0.06,"TL                                                "
48480,04/24/2011,"1015      ",7.94,1.03,1.11,0.01,0.030,1,0.10,"sbk                                               "
48481,04/25/2011,"1205      ",7.80,1.19,1.36,0.02,0.043,0,0.09,"TCF                                               "
48482,04/26/2011,"1010      ",7.98,1.07,1.12,0.01,0.023,0,0.09,"WM                                                "
48483,04/27/2011,"840       ",7.82,1.12,1.19,0.01,0.010,1,0.09,"TL                                                "
48484,04/28/2011,"1016      ",7.76,1.12,1.21,0.01,0.015,0,0.07,"TL                                                "
48485,04/29/2011,"815       ",7.63,0.84,0.92,0.01,0.017,2,10.30,"TL                                                "
48486,04/30/2011,"910       ",7.74,1.15,1.22,0.02,0.012,1,0.09,"TL                                                "
48487,05/01/2011,"925       ",7.92,0.95,1.25,0.02,0.023,0,0.09,"WM                                                "
48488,05/02/2011,"1120      ",7.91,1.13,1.24,0.01,0.007,0,0.11,"TCF                                               "
48489,05/03/2011,"950       ",8.00,1.03,1.16,0.02,0.009,0,0.12,"WM                                                "
48490,05/04/2011,"829       ",7.69,1.09,1.20,0.03,0.020,1,0.09,"TL                                                "
48491,05/05/2011,"900       ",7.86,0.94,1.17,0.02,0.017,0,0.08,"JF                                                "
48492,05/06/2011,"1010      ",7.44,0.83,0.89,0.01,0.002,0,0.11,"TCF                                               "
48493,05/07/2011,"945       ",7.70,1.00,1.09,0.01,0.009,2,0.10,"TL                                                "
48494,05/08/2011,"900       ",7.74,0.85,0.94,0.02,0.006,1,0.08,"WM                                                "
48495,05/09/2011,"1040      ",7.28,0.88,0.93,0.01,0.019,0,0.05,"TCF                                               "
48496,05/10/2011,"950       ",7.36,0.87,0.96,0.02,0.007,0,0.06,"JF                                                "
48497,05/11/2011,"830       ",7.51,1.05,1.17,0.02,0.015,0,0.09,"TL                                                "
48498,05/12/2011,"1005      ",7.65,1.15,1.32,0.02,0.014,2,0.12,"TL                                                "
48499,05/13/2011,"940       ",7.67,0.97,1.07,0.01,0.010,1,0.09,"TL                                                "
48500,05/14/2011,"730       ",7.40,0.94,1.02,0.02,0.016,0,0.06,"DF                                                "
48501,05/15/2011,"1000      ",7.82,1.04,1.15,0.01,0.017,0,0.08,"WM                                                "
48502,05/16/2011,"720       ",7.47,0.98,1.03,0.01,0.003,0,0.05,"DF                                                "
48503,05/17/2011,"725       ",7.42,0.86,0.94,0.02,0.002,0,0.07,"DF                                                "
48504,05/18/2011,"854       ",7.44,0.76,0.92,0.01,0.009,2,0.06,"TL                                                "
48505,05/19/2011,"1040      ",7.49,1.05,1.21,0.02,0.020,0,0.06,"TL                                                "
48506,05/20/2011,"840       ",7.63,1.09,1.25,0.01,0.011,0,0.07,"TL                                                "
48507,05/21/2011,"825       ",7.42,0.82,0.91,0.02,0.017,0,0.07,"JF                                                "
48508,05/22/2011,"800       ",7.80,1.07,1.18,0.02,0.031,0,0.08,"sbk                                               "
48509,05/23/2011,"830       ",7.75,1.04,1.10,0.01,0.012,2,0.05,"DF                                                "
48510,05/24/2011,"830       ",7.38,1.02,1.06,0.01,0.002,1,0.05,"DF                                                "
48511,05/25/2011,"920       ",7.47,0.92,1.01,0.02,0.011,0,0.06,"JF                                                "
48512,05/26/2011,"830       ",7.56,1.01,1.10,0.02,0.015,0,0.08,"TL                                                "
48513,05/27/2011,"840       ",7.62,1.22,1.37,0.01,0.015,0,0.06,"TL                                                "
48514,05/28/2011,"1030      ",7.44,1.17,1.28,0.02,0.013,0,0.06,"sbk                                               "
48515,05/29/2011,"820       ",7.56,0.85,0.98,0.02,0.012,0,0.07,"tl                                                "
48516,05/30/2011,"950       ",7.37,1.07,1.19,0.01,0.009,0,0.06,"tl                                                "
48517,05/31/2011,"1045      ",7.59,1.12,1.21,0.01,0.010,0,0.06,"WM                                                "
48518,06/01/2011,"1140      ",7.67,1.26,1.35,0.02,0.009,0,0.08,"WM                                                "
48519,06/02/2011,"1000      ",7.71,0.92,1.05,0.01,0.010,0,0.07,"TL                                                "
48520,06/03/2011,"815       ",7.76,0.93,1.09,0.00,0.022,0,0.09,"tl                                                "
48521,06/04/2011,"1020      ",7.63,1.04,1.15,0.02,0.015,0,0.07,"tl                                                "
48522,06/05/2011,"940       ",7.65,1.23,1.31,0.02,0.019,0,0.08,"wm                                                "
48523,06/06/2011,"915       ",7.60,1.02,1.10,0.02,0.025,0,0.08,"wm                                                "
48524,06/07/2011,"920       ",7.64,1.11,1.21,0.02,0.017,0,0.06,"JF                                                "
48525,06/08/2011,"830       ",7.63,0.90,0.97,0.02,0.020,0,0.08,"TL                                                "
48526,06/09/2011,"925       ",7.30,0.98,1.15,0.01,0.017,0,0.07,"TCF                                               "
48527,06/10/2011,"815       ",7.54,0.95,1.07,0.00,0.029,0,0.08,"TL                                                "
48528,06/11/2011,"920       ",7.56,0.97,1.15,0.01,0.015,1,0.08,"TL                                                "
48529,06/12/2011,"1015      ",7.59,1.10,1.22,0.01,0.012,0,0.07,"TL                                                "
48530,06/13/2011,"1025      ",7.42,1.08,1.23,0.01,0.015,0,0.08,"TCF                                               "
48531,06/14/2011,"1115      ",7.49,1.14,1.29,0.01,0.028,0,0.08,"JF                                                "
48532,06/15/2011,"900       ",7.50,1.17,1.25,0.01,0.022,0,0.07,"tl                                                "
48533,06/16/2011,"1020      ",7.51,1.55,1.86,0.01,0.018,0,0.06,"TCF                                               "
48534,06/17/2011,"935       ",7.33,1.32,1.48,0.02,0.034,0,0.07,"TCF                                               "
48535,06/18/2011,"1140      ",7.31,1.05,1.15,0.02,0.003,1,0.09,"sbk                                               "
48536,06/19/2011,"945       ",7.52,1.35,1.42,0.01,0.005,0,0.06,"WM                                                "
48537,06/20/2011,"1055      ",7.30,1.33,1.47,0.01,0.000,0,0.08,"TCF                                               "
48538,06/21/2011,"1005      ",7.38,1.05,1.38,0.02,0.004,0,0.07,"jf                                                "
48539,06/22/2011,"1045      ",7.90,1.31,1.37,0.02,0.035,0,0.06,"TCF                                               "
48540,06/23/2011,"940       ",7.87,1.02,1.18,0.02,0.022,0,0.09,"WM                                                "
48541,06/24/2011,"816       ",7.49,1.02,1.15,0.00,0.032,0,0.07,"TL                                                "
48542,06/25/2011,"853       ",7.77,0.72,0.85,0.00,0.015,0,0.08,"TL                                                "
48543,06/26/2011,"820       ",7.67,1.08,1.21,0.00,0.017,0,0.08,"WM                                                "
48544,06/27/2011,"835       ",7.38,0.89,0.92,0.02,0.016,0,0.06,"WM                                                "
48545,06/28/2011,"930       ",7.51,1.12,1.25,0.02,0.014,0,0.08,"JF                                                "
48546,06/29/2011,"840       ",7.63,1.20,1.27,0.00,0.020,1,0.10,"TL                                                "
48547,06/30/2011,"1150      ",7.11,1.00,1.11,0.02,0.022,5,0.11,"tl                                                "
48548,07/01/2011,"845       ",7.99,0.80,0.85,0.07,0.020,0,0.07,"tl                                                "
48549,07/02/2011,"915       ",7.35,1.19,1.25,0.05,0.015,0,0.07,"TL                                                "
48550,07/03/2011,"845       ",7.92,1.07,1.15,0.04,0.039,0,0.12,"TL                                                "
48551,07/04/2011,"945       ",7.99,1.08,1.20,0.03,0.022,0,0.12,"TL                                                "
48552,07/05/2011,"915       ",7.92,0.90,1.03,0.02,0.034,4,0.18,"SBK                                               "
48553,07/06/2011,"1330      ",7.52,1.23,1.25,0.03,0.034,2,0.11,"SBK                                               "
48554,07/07/2011,"957       ",7.99,1.02,1.15,0.04,0.024,1,0.13,"TL                                                "
48555,07/08/2011,"1145      ",7.79,0.99,1.02,0.04,0.043,2,0.11,"TL                                                "
48556,07/09/2011,"1000      ",7.65,0.97,1.10,0.03,0.019,0,0.05,"TL                                                "
48557,07/10/2011,"940       ",7.60,0.99,1.05,0.04,0.030,0,0.07,"TL                                                "
48558,07/11/2011,"955       ",7.36,1.03,1.17,0.02,0.022,0,0.06,"TCF                                               "
48559,07/12/2011,"930       ",7.50,0.97,1.05,0.02,0.020,0,0.07,"WM                                                "
48560,07/13/2011,"1345      ",7.33,0.83,1.07,0.03,0.038,0,0.09,"TCF                                               "
48561,07/14/2011,"805       ",7.30,0.71,0.75,0.01,0.054,0,0.08,"TL                                                "
48562,07/15/2011,"1215      ",7.41,1.15,1.22,0.02,0.029,0,0.05,"tl                                                "
48563,07/16/2011,"900       ",7.53,1.11,1.24,0.04,0.057,2,0.09,"TL                                                "
48564,07/17/2011,"1018      ",8.25,1.05,1.19,0.03,0.059,0,0.08,"TL                                                "
48565,07/18/2011,"1040      ",7.88,0.90,0.95,0.03,0.048,0,0.08,"TCF                                               "
48566,07/19/2011,"0920      ",8.18,0.85,0.92,0.03,0.059,0,0.09,"JF                                                "
48567,07/20/2011,"0817      ",7.60,0.93,1.00,0.02,0.065,0,0.11,"TL                                                "
48732,07/20/2011,"1625      ",7.74,1.01,1.19,0.01,0.046,0,0.12,"WM                                                "
48568,07/21/2011,"0940      ",7.55,1.15,1.27,0.01,0.059,0,0.06,"TL                                                "
48569,07/22/2011,"743       ",7.59,0.97,1.02,0.02,0.082,2,0.12,"TL                                                "